Weather History for KHYR - May, 2012

Change the Weather History Date:

Tuesday, May 29, 2012

  Actual Average Record
Temperature  
Mean Temperature 56 °F -  
Max Temperature 64 °F 76 °F 98 °F (2006)
Min Temperature 48 °F 48 °F 32 °F (2001)
Degree Days  
Heating Degree Days 9    
Growing Degree Days 6 (Base 50)    
Moisture  
Dew Point 45 °F    
Average Humidity 72    
Maximum Humidity 97    
Minimum Humidity 50    
Precipitation  
Precipitation 0.01 in - - ()
Sea Level Pressure  
Sea Level Pressure 29.76 in    
Wind  
Wind Speed 4 mph (WSW)    
Max Wind Speed 12 mph    
Max Gust Speed 24 mph    
Visibility 9 miles    
Events Rain    
Averages and records for this station are not official NWS values.
T = Trace of Precipitation, MM = Missing Value Source: NWS Daily Summary

Daily Weather History Graph

Daily Weather History Graph

Search for Another Location

Airport or City:

Trip Planner

Search our weather history database for the weather conditions in past years. The results will help you decide how hot, cold, wet, or windy it might be!

Date:

Astronomy

May. 29, 2012 Rise Set
Actual Time 5:20 AM CDT 8:47 PM CDT
Civil Twilight 4:42 AM CDT 9:24 PM CDT
Nautical Twilight 3:54 AM CDT 10:13 PM CDT
Astronomical Twilight 2:51 AM CDT 11:17 PM CDT
Moon 1:58 PM CDT (5/29) 1:34 AM CDT (5/29)
Length of Visible Light 16h 41m
Length of Day
15h 26m
First Quarter, 59% of the Moon is Illuminated
May 29
First Quarter
Jun 4
Full
Jun 11
Last Quarter
Jun 19
New
Jun 26
First Quarter

Hourly Weather History & Observations

Time (CDT) Temp. Dew Point Humidity Pressure Visibility Wind Dir Wind Speed Gust Speed Precip Events Conditions
12:26 AM 51.8 °F 48.2 °F 88% 29.72 in 1.8 mi Calm Calm - N/A   Clear
12:39 AM 51.8 °F 48.2 °F 88% 29.72 in 3.0 mi Calm Calm - N/A   Clear
12:53 AM 50.0 °F 48.9 °F 96% 29.72 in 9.0 mi Calm Calm - N/A   Scattered Clouds
1:53 AM 52.0 °F 51.1 °F 97% 29.70 in 10.0 mi Calm Calm - N/A   Overcast
2:53 AM 53.1 °F 50.0 °F 89% 29.68 in 10.0 mi Calm Calm - N/A   Overcast
3:53 AM 52.0 °F 48.9 °F 89% 29.68 in 10.0 mi Calm Calm - N/A   Overcast
4:53 AM 52.0 °F 48.0 °F 86% 29.68 in 10.0 mi SSW 3.5 mph - N/A   Overcast
5:53 AM 51.1 °F 48.0 °F 89% 29.68 in 10.0 mi Calm Calm - N/A   Overcast
6:53 AM 53.1 °F 46.9 °F 80% 29.70 in 10.0 mi Variable 3.5 mph - N/A   Overcast
7:53 AM 54.0 °F 45.0 °F 72% 29.71 in 10.0 mi WSW 6.9 mph - N/A   Overcast
8:53 AM 54.0 °F 44.1 °F 69% 29.72 in 10.0 mi WSW 8.1 mph 19.6 mph N/A   Overcast
9:53 AM 55.0 °F 44.1 °F 67% 29.72 in 10.0 mi WSW 8.1 mph - N/A   Overcast
10:13 AM 55.4 °F 44.6 °F 67% 29.71 in 10.0 mi Variable 5.8 mph 18.4 mph N/A   Overcast
10:30 AM 55.4 °F 44.6 °F 67% 29.72 in 10.0 mi West 9.2 mph 18.4 mph N/A   Overcast
10:53 AM 55.0 °F 44.1 °F 67% 29.74 in 10.0 mi WSW 8.1 mph 19.6 mph N/A   Overcast
11:53 AM 55.0 °F 46.0 °F 72% 29.75 in 6.0 mi WSW 10.4 mph 23.0 mph 0.01 in Rain Light Rain
12:53 PM 57.0 °F 48.9 °F 74% 29.76 in 10.0 mi WSW 9.2 mph 23.0 mph 0.00 in   Mostly Cloudy
1:53 PM 60.1 °F 45.0 °F 57% 29.77 in 10.0 mi WNW 9.2 mph 24.2 mph N/A   Scattered Clouds
2:53 PM 61.0 °F 43.0 °F 52% 29.76 in 10.0 mi West 8.1 mph 20.7 mph N/A   Overcast
3:53 PM 61.0 °F 44.1 °F 54% 29.77 in 10.0 mi West 9.2 mph 17.3 mph N/A   Mostly Cloudy
4:53 PM 62.1 °F 43.0 °F 50% 29.77 in 10.0 mi West 11.5 mph 20.7 mph N/A   Scattered Clouds
5:53 PM 61.0 °F 42.1 °F 50% 29.80 in 10.0 mi WNW 9.2 mph 17.3 mph N/A   Overcast
6:53 PM 57.0 °F 41.0 °F 55% 29.83 in 10.0 mi Variable 6.9 mph - N/A   Overcast
7:53 PM 55.0 °F 39.9 °F 57% 29.84 in 10.0 mi Variable 6.9 mph - N/A   Overcast
8:53 PM 53.1 °F 41.0 °F 64% 29.86 in 10.0 mi Variable 4.6 mph - N/A   Overcast
9:53 PM 52.0 °F 41.0 °F 66% 29.88 in 10.0 mi Variable 3.5 mph - N/A   Overcast
10:53 PM 51.1 °F 41.0 °F 68% 29.88 in 10.0 mi Variable 3.5 mph - N/A   Overcast
11:37 PM 50.0 °F 41.0 °F 71% 29.88 in 10.0 mi Variable 3.5 mph - 0.00 in Rain Light Rain
11:53 PM 48.9 °F 42.1 °F 77% 29.91 in 10.0 mi Variable 5.8 mph - 0.00 in   Overcast